Faith, SD

11:10 PM MST on February 11, 2016 (GMT -0700)
Faith

Weather History for KD07 - October, 2013

Change the Weather History Date:

Saturday, October 26, 2013

  Actual Average Record
Temperature  
Mean Temperature 42 °F 43 °F  
Max Temperature 55 °F 54 °F 75 °F (1999)
Min Temperature 28 °F 32 °F 18 °F (2001)
Degree Days  
Heating Degree Days 23 22  
Month to date heating degree days 535 450  
Since 1 July heating degree days 630 682  
Cooling Degree Days 0 0  
Month to date cooling degree days 0 0  
Year to date cooling degree days 720 634  
Moisture  
Dew Point 26 °F    
Average Humidity 57    
Maximum Humidity 85    
Minimum Humidity 28    
Precipitation  
Precipitation 0.00 in 0.06 in 0.02 in (2015)
Month to date precipitation 2.47 1.27  
Year to date precipitation 15.94 16.45  
Sea Level Pressure  
Sea Level Pressure 30.20 in    
Wind  
Wind Speed 10 mph (West)    
Max Wind Speed 18 mph    
Max Gust Speed 21 mph    
T = Trace of Precipitation, MM = Missing Value Source: NWS Daily Summary

Daily Weather History Graph

Daily Weather History Graph

Search for Another Location

Airport or City:

Trip Planner

Search our weather history database for the weather conditions in past years. The results will help you decide how hot, cold, wet, or windy it might be!

Date:

Astronomy

Oct. 26, 2013 Rise Set
Actual Time 7:18 AM MDT 5:44 PM MDT
Civil Twilight 6:48 AM MDT 6:14 PM MDT
Nautical Twilight 6:14 AM MDT 6:49 PM MDT
Astronomical Twilight 5:40 AM MDT 7:23 PM MDT
Moon No Moon Rise 1:38 PM MDT (10/26)
Length of Visible Light 11h 26m
Length of Day
10h 25m
Waning Gibbous, 52% of the Moon is Illuminated
Oct 26
Waning Gibbous
Oct 26
Last Quarter
Nov 3
New
Nov 9
First Quarter
Nov 17
Full

Hourly Weather History & Observations

Time (MDT) Temp. Windchill Dew Point Humidity Pressure Visibility Wind Dir Wind Speed Gust Speed Precip Events Conditions
12:56 AM 41.0 °F 32.8 °F 28.9 °F 62% 30.20 in - NNW 16.1 mph - N/A   Unknown
1:56 AM 37.0 °F 29.3 °F 27.0 °F 67% 30.22 in - NW 11.5 mph - N/A   Unknown
2:56 AM 36.0 °F 27.5 °F 26.1 °F 67% 30.23 in - NW 12.7 mph - N/A   Unknown
3:56 AM 34.0 °F 26.6 °F 26.1 °F 73% 30.25 in - NW 9.2 mph - N/A   Unknown
4:56 AM 33.1 °F 26.1 °F 25.0 °F 72% 30.28 in - WNW 8.1 mph - N/A   Unknown
5:56 AM 30.9 °F 24.3 °F 24.1 °F 76% 30.30 in - WNW 6.9 mph - N/A   Unknown
6:56 AM 28.9 °F 21.1 °F 23.0 °F 78% 30.32 in - WNW 8.1 mph - N/A   Unknown
7:56 AM 28.9 °F 21.9 °F 24.1 °F 82% 30.34 in - NW 6.9 mph - N/A   Unknown
8:56 AM 35.1 °F 27.9 °F 25.0 °F 67% 30.33 in - WNW 9.2 mph - N/A   Unknown
9:56 AM 39.9 °F 34.5 °F 26.1 °F 58% 30.32 in - NW 8.1 mph - N/A   Unknown
10:56 AM 42.1 °F 37.1 °F 26.1 °F 53% 30.31 in - NW 8.1 mph 17.3 mph N/A   Unknown
11:56 AM 45.0 °F 41.8 °F 24.1 °F 44% 30.30 in - NW 5.8 mph - N/A   Unknown
12:56 PM 48.0 °F - 21.9 °F 36% 30.25 in - Variable 3.5 mph - N/A   Unknown
1:56 PM 52.0 °F - 21.9 °F 31% 30.22 in - West 5.8 mph - N/A   Unknown
2:56 PM 54.0 °F - 21.0 °F 28% 30.19 in - SW 4.6 mph - N/A   Unknown
3:56 PM 54.0 °F - 21.0 °F 28% 30.16 in - SW 8.1 mph - N/A   Unknown
4:56 PM 53.1 °F - 25.0 °F 34% 30.13 in - South 5.8 mph - N/A   Unknown
5:56 PM 43.0 °F 36.8 °F 28.9 °F 58% 30.14 in - South 11.5 mph - N/A   Unknown
6:56 PM 39.9 °F 32.1 °F 30.0 °F 68% 30.13 in - South 13.8 mph - N/A   Unknown
7:56 PM 39.0 °F 30.6 °F 28.9 °F 67% 30.10 in - South 15.0 mph - N/A   Unknown
8:56 PM 39.0 °F 30.6 °F 28.0 °F 65% 30.06 in - South 15.0 mph - N/A   Unknown
9:56 PM 39.9 °F 31.1 °F 27.0 °F 60% 30.02 in - South 17.3 mph - N/A   Unknown
10:56 PM 39.9 °F 31.8 °F 28.9 °F 65% 29.99 in - SSW 15.0 mph - N/A   Unknown
11:56 PM 41.0 °F 33.9 °F 28.9 °F 62% 29.95 in - SSW 12.7 mph - N/A   Unknown